Zurück zum Katalog

QIANFAN-200

AktivKommunikationPO
NORAD 69418·PAYLOAD·🇨🇳 China

Gestartet Jun 5, 2026 von Wenchang Space Launch Site

Loading…

Nächste Überflüge (nächste 24 Stunden)

TLE

AktuellSource: Space-Track

Epoche: Sep 14, 2026, 13:36 UTC

1 69418U 26125T   26257.56694388  .00000005  00000-0 -10783-4 0  9994
2 69418  88.9884 270.9241 0001947 106.0567 254.0799 13.51026162 14015

Verfolge QIANFAN-200 in Echtzeit mit AllMySat

Download on the App Store